Location: Newark
(45.0242°N, 16.0939°E)
Time: 00:37:59
(UTC+00:00)

Envisat - Pass Details

Date: 22 September 2019
Orbit: 764 x 766 km, 98.1° (Epoch: 20 October)

Event Time Altitude Azimuth Distance (km) Brightness Sun altitude
Rises 18:08:31 0° 203° (SSW) 3,220 6.3 -13.9°
Reaches altitude 10° 18:11:19 10° 218° (SW) 2,299 5.8 -14.3°
Maximum altitude 18:15:11 22° 268° (W) 1,645 5.6 -15.0°
Drops below altitude 10° 18:19:03 10° 318° (NW) 2,312 6.4 -15.7°
Sets 18:21:54 0° 334° (NNW) 3,243 6.9 -16.1°
